Wetterdaten: Woche 26.11.12 - 02.12.12 (KW48)
Datum Zeit Temperatur Luftfeuchte Luftdruck Niederschlag Windrichtung Sonnenschein Solar Wind
26.11.2012 00:00 6,1 C 92 % 1014,6 hPa 0,0 l/m N 0,00 h 0 W/m 0,0 km/h (0 Bft)
26.11.2012 01:00 6,1 C 93 % 1013,8 hPa 0,0 l/m N 0,00 h 0 W/m 0,0 km/h (0 Bft)
26.11.2012 02:00 6,3 C 94 % 1013,5 hPa 0,0 l/m SW 0,00 h 0 W/m 0,7 km/h (0 Bft)
26.11.2012 03:00 6,4 C 95 % 1012,7 hPa 0,2 l/m SW 0,00 h 0 W/m 2,1 km/h (1 Bft)
26.11.2012 04:00 6,4 C 95 % 1012,1 hPa 0,0 l/m N 0,00 h 0 W/m 0,4 km/h (0 Bft)
26.11.2012 05:00 6,4 C 96 % 1011,8 hPa 0,4 l/m N 0,00 h 0 W/m 1,7 km/h (1 Bft)
26.11.2012 06:00 6,5 C 96 % 1011,4 hPa 1,0 l/m W-SW 0,00 h 0 W/m 3,7 km/h (1 Bft)
26.11.2012 07:00 6,5 C 97 % 1011,0 hPa 0,4 l/m W-SW 0,00 h 5 W/m 3,2 km/h (1 Bft)
26.11.2012 08:00 6,6 C 97 % 1010,8 hPa 0,2 l/m W-SW 0,00 h 23 W/m 4,0 km/h (1 Bft)
26.11.2012 09:00 7,2 C 98 % 1010,8 hPa 0,0 l/m N-NW 0,00 h 46 W/m 6,8 km/h (2 Bft)
26.11.2012 10:00 7,7 C 98 % 1010,4 hPa 0,2 l/m W-SW 0,00 h 38 W/m 7,8 km/h (2 Bft)
26.11.2012 11:00 8,1 C 98 % 1009,9 hPa 0,2 l/m W-SW 0,00 h 56 W/m 3,9 km/h (1 Bft)
26.11.2012 12:00 8,8 C 98 % 1009,0 hPa 0,0 l/m W-SW 0,00 h 95 W/m 2,9 km/h (1 Bft)
26.11.2012 13:00 9,5 C 96 % 1008,0 hPa 0,0 l/m SW 0,00 h 99 W/m 4,7 km/h (1 Bft)
26.11.2012 14:00 9,7 C 96 % 1007,1 hPa 0,0 l/m SW 0,00 h 66 W/m 4,7 km/h (1 Bft)
26.11.2012 15:00 9,7 C 96 % 1006,2 hPa 0,2 l/m N 0,00 h 18 W/m 0,5 km/h (0 Bft)
26.11.2012 16:00 9,5 C 96 % 1005,5 hPa 0,0 l/m SW 0,00 h 10 W/m 3,9 km/h (1 Bft)
26.11.2012 17:00 9,1 C 97 % 1005,4 hPa 0,0 l/m W-SW 0,00 h 0 W/m 6,8 km/h (2 Bft)
26.11.2012 18:00 8,8 C 97 % 1005,6 hPa 0,0 l/m N-NW 0,00 h 0 W/m 9,8 km/h (2 Bft)
26.11.2012 19:00 8,3 C 97 % 1005,5 hPa 0,0 l/m N-NW 0,00 h 0 W/m 5,2 km/h (1 Bft)
26.11.2012 20:00 7,8 C 97 % 1005,7 hPa 0,0 l/m NW 0,00 h 0 W/m 2,7 km/h (1 Bft)
26.11.2012 21:00 7,5 C 98 % 1005,7 hPa 0,0 l/m N 0,00 h 0 W/m 1,7 km/h (1 Bft)
26.11.2012 22:00 7,2 C 98 % 1005,9 hPa 0,0 l/m W-SW 0,00 h 0 W/m 3,6 km/h (1 Bft)
26.11.2012 23:00 6,9 C 98 % 1006,2 hPa 0,0 l/m W-SW 0,00 h 0 W/m 4,0 km/h (1 Bft)
27.11.2012 00:00 7,2 C 98 % 1006,2 hPa 0,0 l/m N 0,00 h 0 W/m 0,8 km/h (0 Bft)
27.11.2012 01:00 7,2 C 98 % 1005,8 hPa 0,2 l/m N 0,00 h 0 W/m 0,5 km/h (0 Bft)
27.11.2012 02:00 7,0 C 98 % 1005,3 hPa 0,0 l/m W 0,00 h 0 W/m 4,9 km/h (1 Bft)
27.11.2012 03:00 6,6 C 98 % 1005,0 hPa 0,0 l/m N 0,00 h 0 W/m 1,6 km/h (1 Bft)
27.11.2012 04:00 6,4 C 98 % 1004,8 hPa 0,0 l/m N 0,00 h 0 W/m 0,9 km/h (0 Bft)
27.11.2012 05:00 6,3 C 98 % 1004,6 hPa 0,0 l/m N 0,00 h 0 W/m 0,8 km/h (0 Bft)
27.11.2012 06:00 6,3 C 99 % 1004,6 hPa 0,0 l/m W-NW 0,00 h 0 W/m 2,9 km/h (1 Bft)
27.11.2012 07:00 6,2 C 98 % 1004,9 hPa 0,0 l/m W-NW 0,00 h 0 W/m 6,5 km/h (2 Bft)
27.11.2012 08:00 6,0 C 99 % 1005,0 hPa 0,0 l/m N-NO 0,00 h 9 W/m 2,9 km/h (1 Bft)
27.11.2012 09:00 6,1 C 99 % 1005,0 hPa 0,0 l/m N-NO 0,00 h 19 W/m 3,5 km/h (1 Bft)
27.11.2012 10:00 6,4 C 99 % 1004,9 hPa 0,0 l/m N-NO 0,00 h 41 W/m 3,7 km/h (1 Bft)
27.11.2012 11:00 6,7 C 97 % 1004,5 hPa 0,0 l/m N-NO 0,00 h 32 W/m 4,1 km/h (1 Bft)
27.11.2012 12:00 6,8 C 96 % 1004,1 hPa 0,0 l/m N-NO 0,00 h 35 W/m 5,6 km/h (1 Bft)
27.11.2012 13:00 7,0 C 95 % 1004,0 hPa 0,0 l/m N-NO 0,00 h 20 W/m 4,9 km/h (1 Bft)
27.11.2012 14:00 7,1 C 95 % 1003,6 hPa 0,0 l/m N-NO 0,00 h 25 W/m 4,3 km/h (1 Bft)
27.11.2012 15:00 7,0 C 95 % 1003,5 hPa 0,0 l/m N-NO 0,00 h 6 W/m 6,3 km/h (2 Bft)
27.11.2012 16:00 6,7 C 96 % 1003,3 hPa 0,0 l/m N-NO 0,00 h 0 W/m 6,7 km/h (2 Bft)
27.11.2012 17:00 6,5 C 96 % 1003,4 hPa 0,0 l/m N-NO 0,00 h 0 W/m 5,3 km/h (1 Bft)
27.11.2012 18:00 6,4 C 97 % 1003,1 hPa 0,0 l/m N-NO 0,00 h 0 W/m 3,5 km/h (1 Bft)
27.11.2012 19:00 6,5 C 97 % 1002,9 hPa 0,0 l/m N-NO 0,00 h 0 W/m 5,2 km/h (1 Bft)
27.11.2012 20:00 6,4 C 97 % 1002,9 hPa 0,0 l/m N-NO 0,00 h 0 W/m 5,7 km/h (1 Bft)
27.11.2012 21:00 6,3 C 97 % 1002,7 hPa 0,0 l/m O-NO 0,00 h 0 W/m 6,9 km/h (2 Bft)
27.11.2012 22:00 6,2 C 97 % 1002,6 hPa 0,0 l/m O-NO 0,00 h 0 W/m 4,5 km/h (1 Bft)
27.11.2012 23:00 6,1 C 97 % 1002,6 hPa 0,0 l/m O-NO 0,00 h 0 W/m 4,0 km/h (1 Bft)
28.11.2012 00:00 5,9 C 97 % 1001,9 hPa 0,0 l/m O-NO 0,00 h 0 W/m 5,3 km/h (1 Bft)
28.11.2012 01:00 5,8 C 97 % 1001,4 hPa 0,0 l/m O-NO 0,00 h 0 W/m 6,3 km/h (2 Bft)
28.11.2012 02:00 5,7 C 97 % 1001,2 hPa 0,0 l/m NO 0,00 h 0 W/m 8,2 km/h (2 Bft)
28.11.2012 03:00 5,5 C 97 % 1000,9 hPa 0,0 l/m NO 0,00 h 0 W/m 7,1 km/h (2 Bft)
28.11.2012 04:00 5,3 C 97 % 1000,5 hPa 0,0 l/m NO 0,00 h 0 W/m 6,3 km/h (2 Bft)
28.11.2012 05:00 5,2 C 97 % 1000,1 hPa 0,0 l/m NO 0,00 h 0 W/m 8,2 km/h (2 Bft)
28.11.2012 06:00 5,1 C 97 % 999,6 hPa 0,0 l/m NO 0,00 h 0 W/m 9,5 km/h (2 Bft)
28.11.2012 07:00 5,0 C 98 % 999,5 hPa 0,2 l/m NO 0,00 h 0 W/m 10,5 km/h (2 Bft)
28.11.2012 08:00 4,9 C 98 % 999,4 hPa 0,2 l/m N-NO 0,00 h 7 W/m 11,6 km/h (2 Bft)
28.11.2012 09:00 4,8 C 98 % 999,3 hPa 0,2 l/m N-NO 0,00 h 12 W/m 11,3 km/h (2 Bft)
28.11.2012 10:00 4,8 C 98 % 999,0 hPa 0,2 l/m N-NO 0,00 h 18 W/m 14,0 km/h (3 Bft)
28.11.2012 11:00 4,7 C 98 % 998,4 hPa 0,2 l/m N-NO 0,00 h 18 W/m 12,5 km/h (3 Bft)
28.11.2012 12:00 4,7 C 98 % 997,3 hPa 0,2 l/m N-NO 0,00 h 17 W/m 16,2 km/h (3 Bft)
28.11.2012 13:00 4,7 C 98 % 996,6 hPa 0,4 l/m NO 0,00 h 22 W/m 12,0 km/h (2 Bft)
28.11.2012 14:00 4,8 C 98 % 996,3 hPa 0,4 l/m NO 0,00 h 12 W/m 12,2 km/h (2 Bft)
28.11.2012 15:00 4,8 C 98 % 995,9 hPa 0,6 l/m N-NO 0,00 h 6 W/m 15,2 km/h (3 Bft)
28.11.2012 16:00 4,6 C 98 % 995,6 hPa 0,6 l/m NO 0,00 h 0 W/m 17,6 km/h (3 Bft)
28.11.2012 17:00 4,4 C 98 % 995,0 hPa 0,4 l/m O-NO 0,00 h 0 W/m 14,8 km/h (3 Bft)
28.11.2012 18:00 4,3 C 98 % 994,3 hPa 0,4 l/m NO 0,00 h 0 W/m 10,5 km/h (2 Bft)
28.11.2012 19:00 4,4 C 98 % 994,1 hPa 0,6 l/m N-NO 0,00 h 0 W/m 10,6 km/h (2 Bft)
28.11.2012 20:00 4,2 C 98 % 993,6 hPa 0,8 l/m N-NO 0,00 h 0 W/m 10,3 km/h (2 Bft)
28.11.2012 21:00 4,0 C 98 % 993,4 hPa 0,8 l/m N 0,00 h 0 W/m 12,9 km/h (3 Bft)
28.11.2012 22:00 3,6 C 98 % 992,9 hPa 1,0 l/m N 0,00 h 0 W/m 15,8 km/h (3 Bft)
28.11.2012 23:00 3,1 C 98 % 992,7 hPa 1,4 l/m N 0,00 h 0 W/m 16,8 km/h (3 Bft)
29.11.2012 00:00 2,7 C 98 % 992,4 hPa 1,4 l/m N 0,00 h 0 W/m 15,7 km/h (3 Bft)
29.11.2012 01:00 1,9 C 97 % 992,5 hPa 1,2 l/m N-NW 0,00 h 0 W/m 11,8 km/h (2 Bft)
29.11.2012 02:00 0,9 C 97 % 992,7 hPa 0,0 l/m N-NW 0,00 h 0 W/m 8,0 km/h (2 Bft)
29.11.2012 03:00 0,6 C 97 % 992,8 hPa 0,0 l/m N-NW 0,00 h 0 W/m 4,8 km/h (1 Bft)
29.11.2012 04:00 0,5 C 98 % 992,9 hPa 0,8 l/m N 0,00 h 0 W/m 1,1 km/h (0 Bft)
29.11.2012 05:00 0,5 C 98 % 993,4 hPa 3,0 l/m N 0,00 h 0 W/m 0,1 km/h (0 Bft)
29.11.2012 06:00 0,5 C 98 % 994,1 hPa 2,8 l/m N 0,00 h 0 W/m 0,1 km/h (0 Bft)
29.11.2012 07:00 0,6 C 98 % 994,8 hPa 3,0 l/m N 0,00 h 0 W/m 0,0 km/h (0 Bft)
29.11.2012 08:00 0,6 C 98 % 995,9 hPa 2,6 l/m W-NW 0,00 h 8 W/m 5,7 km/h (1 Bft)
29.11.2012 09:00 0,7 C 98 % 996,9 hPa 2,2 l/m NW 0,00 h 15 W/m 3,6 km/h (1 Bft)
29.11.2012 10:00 0,7 C 98 % 997,9 hPa 1,2 l/m N 0,00 h 25 W/m 0,0 km/h (0 Bft)
29.11.2012 11:00 0,7 C 98 % 998,5 hPa 2,4 l/m NW 0,00 h 50 W/m 5,2 km/h (1 Bft)
29.11.2012 12:00 1,0 C 98 % 998,8 hPa 2,0 l/m W-NW 0,00 h 73 W/m 7,8 km/h (2 Bft)
29.11.2012 13:00 1,3 C 98 % 999,3 hPa 1,6 l/m W-NW 0,00 h 79 W/m 11,9 km/h (2 Bft)
29.11.2012 14:00 0,9 C 97 % 999,9 hPa 0,6 l/m N 0,00 h 56 W/m 12,8 km/h (3 Bft)
29.11.2012 15:00 0,6 C 97 % 1000,7 hPa 0,4 l/m N 0,00 h 8 W/m 12,2 km/h (2 Bft)
29.11.2012 16:00 0,3 C 96 % 1001,5 hPa 0,2 l/m N-NW 0,00 h 5 W/m 8,1 km/h (2 Bft)
29.11.2012 17:00 0,3 C 95 % 1001,8 hPa 0,2 l/m NW 0,00 h 0 W/m 5,9 km/h (2 Bft)
29.11.2012 18:00 0,1 C 95 % 1002,2 hPa 0,0 l/m N 0,00 h 0 W/m 1,9 km/h (1 Bft)
29.11.2012 19:00 -0,0 C 95 % 1002,7 hPa 0,0 l/m N 0,00 h 0 W/m 1,5 km/h (1 Bft)
29.11.2012 20:00 -0,3 C 94 % 1003,2 hPa 0,0 l/m NW 0,00 h 0 W/m 6,3 km/h (2 Bft)
29.11.2012 21:00 -0,3 C 95 % 1003,3 hPa 0,0 l/m W-NW 0,00 h 0 W/m 3,2 km/h (1 Bft)
29.11.2012 22:00 -0,5 C 95 % 1003,4 hPa 0,0 l/m W-NW 0,00 h 0 W/m 6,3 km/h (2 Bft)
29.11.2012 23:00 -0,4 C 95 % 1003,4 hPa 0,0 l/m W 0,00 h 0 W/m 6,2 km/h (2 Bft)
30.11.2012 00:00 -0,6 C 95 % 1003,6 hPa 0,0 l/m N 0,00 h 0 W/m 1,2 km/h (1 Bft)
30.11.2012 01:00 -0,7 C 96 % 1003,7 hPa 0,0 l/m W 0,00 h 0 W/m 2,4 km/h (1 Bft)
30.11.2012 02:00 -0,6 C 96 % 1004,0 hPa 0,0 l/m N 0,00 h 0 W/m 0,5 km/h (0 Bft)
30.11.2012 03:00 -0,6 C 96 % 1004,3 hPa 0,0 l/m N 0,00 h 0 W/m 0,9 km/h (0 Bft)
30.11.2012 04:00 -0,7 C 96 % 1004,5 hPa 0,0 l/m N 0,00 h 0 W/m 0,3 km/h (0 Bft)
30.11.2012 05:00 -0,7 C 96 % 1004,5 hPa 0,0 l/m N 0,00 h 0 W/m 1,6 km/h (1 Bft)
30.11.2012 06:00 -0,8 C 96 % 1005,2 hPa 0,0 l/m W 0,00 h 0 W/m 2,8 km/h (1 Bft)
30.11.2012 07:00 -0,9 C 97 % 1005,6 hPa 0,0 l/m N 0,00 h 0 W/m 0,1 km/h (0 Bft)
30.11.2012 08:00 -0,9 C 97 % 1006,0 hPa 0,0 l/m N 0,00 h 16 W/m 0,1 km/h (0 Bft)
30.11.2012 09:00 -0,6 C 97 % 1006,5 hPa 0,0 l/m N 0,00 h 61 W/m 1,2 km/h (1 Bft)
30.11.2012 10:00 -0,1 C 97 % 1007,3 hPa 0,0 l/m N 0,00 h 88 W/m 1,1 km/h (0 Bft)
30.11.2012 11:00 0,7 C 97 % 1007,5 hPa 0,0 l/m W 0,00 h 110 W/m 3,3 km/h (1 Bft)
30.11.2012 12:00 1,3 C 95 % 1007,4 hPa 0,0 l/m W 0,00 h 115 W/m 3,7 km/h (1 Bft)
30.11.2012 13:00 1,4 C 91 % 1007,5 hPa 0,0 l/m W 0,25 h 182 W/m 3,5 km/h (1 Bft)
30.11.2012 14:00 1,2 C 87 % 1007,8 hPa 0,0 l/m N-NW 0,50 h 125 W/m 6,8 km/h (2 Bft)
30.11.2012 15:00 1,3 C 77 % 1008,3 hPa 0,0 l/m N 0,17 h 53 W/m 3,5 km/h (1 Bft)
30.11.2012 16:00 0,4 C 85 % 1009,0 hPa 0,0 l/m N 0,17 h 14 W/m 8,2 km/h (2 Bft)
30.11.2012 17:00 -0,4 C 91 % 1009,7 hPa 0,0 l/m N 0,00 h 0 W/m 3,3 km/h (1 Bft)
30.11.2012 18:00 -0,5 C 93 % 1009,9 hPa 0,0 l/m N 0,00 h 0 W/m 6,1 km/h (2 Bft)
30.11.2012 19:00 -0,8 C 93 % 1010,1 hPa 0,0 l/m N 0,00 h 0 W/m 2,8 km/h (1 Bft)
30.11.2012 20:00 -1,5 C 93 % 1010,5 hPa 0,0 l/m N 0,00 h 0 W/m 4,1 km/h (1 Bft)
30.11.2012 21:00 -2,2 C 94 % 1010,8 hPa 0,0 l/m N 0,00 h 0 W/m 3,9 km/h (1 Bft)
30.11.2012 22:00 -2,9 C 94 % 1011,2 hPa 0,0 l/m N 0,00 h 0 W/m 1,5 km/h (1 Bft)
30.11.2012 23:00 -3,5 C 94 % 1011,4 hPa 0,0 l/m N 0,00 h 0 W/m 1,2 km/h (1 Bft)
01.12.2012 00:00 -4,1 C 94 % 1011,5 hPa 0,0 l/m N 0,00 h 0 W/m 0,8 km/h (0 Bft)
01.12.2012 01:00 -4,1 C 95 % 1011,5 hPa 0,0 l/m N 0,00 h 0 W/m 4,1 km/h (1 Bft)
01.12.2012 02:00 -3,5 C 96 % 1011,8 hPa 0,0 l/m O-NO 0,00 h 0 W/m 7,9 km/h (2 Bft)
01.12.2012 03:00 -3,3 C 97 % 1011,9 hPa 0,0 l/m O-NO 0,00 h 0 W/m 6,5 km/h (2 Bft)
01.12.2012 04:00 -3,2 C 96 % 1012,0 hPa 0,0 l/m O-NO 0,00 h 0 W/m 6,3 km/h (2 Bft)
01.12.2012 05:00 -3,3 C 96 % 1012,3 hPa 0,0 l/m NO 0,00 h 0 W/m 8,2 km/h (2 Bft)
01.12.2012 06:00 -3,4 C 96 % 1012,6 hPa 0,0 l/m O-NO 0,00 h 0 W/m 7,0 km/h (2 Bft)
01.12.2012 07:00 -3,3 C 95 % 1012,9 hPa 0,0 l/m O-NO 0,00 h 0 W/m 5,5 km/h (1 Bft)
01.12.2012 08:00 -3,3 C 95 % 1013,2 hPa 0,0 l/m O-NO 0,00 h 19 W/m 7,9 km/h (2 Bft)
01.12.2012 09:00 -3,4 C 94 % 1013,6 hPa 0,0 l/m NO 0,00 h 42 W/m 9,3 km/h (2 Bft)
01.12.2012 10:00 -3,2 C 93 % 1014,1 hPa 0,0 l/m NO 0,00 h 62 W/m 9,0 km/h (2 Bft)
01.12.2012 11:00 -2,9 C 92 % 1013,9 hPa 0,0 l/m NO 0,00 h 75 W/m 8,2 km/h (2 Bft)
01.12.2012 12:00 -2,8 C 92 % 1013,9 hPa 0,0 l/m NO 0,00 h 71 W/m 6,9 km/h (2 Bft)
01.12.2012 13:00 -2,7 C 92 % 1013,9 hPa 0,0 l/m NO 0,00 h 53 W/m 5,3 km/h (1 Bft)
01.12.2012 14:00 -2,4 C 92 % 1014,0 hPa 0,0 l/m NO 0,00 h 30 W/m 3,5 km/h (1 Bft)
01.12.2012 15:00 -2,4 C 91 % 1014,3 hPa 0,0 l/m NO 0,00 h 15 W/m 4,3 km/h (1 Bft)
01.12.2012 16:00 -2,5 C 91 % 1014,4 hPa 0,0 l/m NO 0,00 h 6 W/m 3,5 km/h (1 Bft)
01.12.2012 17:00 -2,8 C 91 % 1014,6 hPa 0,0 l/m NO 0,00 h 0 W/m 2,5 km/h (1 Bft)
01.12.2012 18:00 -2,8 C 92 % 1014,8 hPa 0,0 l/m N 0,00 h 0 W/m 1,6 km/h (1 Bft)
01.12.2012 19:00 -2,9 C 92 % 1015,0 hPa 0,0 l/m NO 0,00 h 0 W/m 3,3 km/h (1 Bft)
01.12.2012 20:00 -3,1 C 93 % 1014,9 hPa 0,0 l/m NO 0,00 h 0 W/m 4,7 km/h (1 Bft)
01.12.2012 21:00 -3,2 C 92 % 1014,9 hPa 0,0 l/m NO 0,00 h 0 W/m 4,0 km/h (1 Bft)
01.12.2012 22:00 -3,2 C 92 % 1015,0 hPa 0,0 l/m NO 0,00 h 0 W/m 4,0 km/h (1 Bft)
01.12.2012 23:00 -3,3 C 93 % 1015,1 hPa 0,0 l/m NO 0,00 h 0 W/m 5,1 km/h (1 Bft)
02.12.2012 00:00 -3,3 C 92 % 1015,0 hPa 0,0 l/m SW 0,00 h 0 W/m 8,6 km/h (2 Bft)
02.12.2012 01:00 -3,9 C 92 % 1014,6 hPa 0,0 l/m SW 0,00 h 0 W/m 4,3 km/h (1 Bft)
02.12.2012 02:00 -4,2 C 93 % 1014,4 hPa 0,0 l/m SW 0,00 h 0 W/m 10,9 km/h (2 Bft)
02.12.2012 03:00 -3,9 C 93 % 1014,1 hPa 0,0 l/m SW 0,00 h 0 W/m 7,0 km/h (2 Bft)
02.12.2012 04:00 -4,0 C 93 % 1013,5 hPa 0,0 l/m SW 0,00 h 0 W/m 8,9 km/h (2 Bft)
02.12.2012 05:00 -3,5 C 94 % 1013,3 hPa 0,0 l/m SW 0,00 h 0 W/m 11,6 km/h (2 Bft)
02.12.2012 06:00 -3,1 C 94 % 1013,0 hPa 0,0 l/m SW 0,00 h 0 W/m 12,8 km/h (3 Bft)
02.12.2012 07:00 -2,8 C 95 % 1012,8 hPa 0,0 l/m SW 0,00 h 0 W/m 13,6 km/h (3 Bft)
02.12.2012 08:00 -2,7 C 96 % 1013,1 hPa 0,2 l/m SW 0,00 h 9 W/m 12,2 km/h (2 Bft)
02.12.2012 09:00 -2,3 C 96 % 1013,4 hPa 0,6 l/m SW 0,00 h 16 W/m 8,7 km/h (2 Bft)
02.12.2012 10:00 -1,7 C 96 % 1013,5 hPa 0,2 l/m SW 0,00 h 27 W/m 7,6 km/h (2 Bft)
02.12.2012 11:00 -1,2 C 96 % 1013,6 hPa 0,2 l/m W-SW 0,00 h 34 W/m 12,9 km/h (3 Bft)
02.12.2012 12:00 -0,7 C 93 % 1013,4 hPa 0,0 l/m SW 0,25 h 165 W/m 14,9 km/h (3 Bft)
02.12.2012 13:00 -0,4 C 88 % 1013,2 hPa 0,0 l/m W-SW 0,75 h 278 W/m 19,0 km/h (3 Bft)
02.12.2012 14:00 -0,6 C 88 % 1013,3 hPa 0,2 l/m W-SW 0,00 h 79 W/m 16,5 km/h (3 Bft)
02.12.2012 15:00 -0,9 C 91 % 1013,6 hPa 0,0 l/m W-SW 0,00 h 27 W/m 17,0 km/h (3 Bft)
02.12.2012 16:00 -1,3 C 93 % 1014,1 hPa 0,0 l/m SW 0,08 h 13 W/m 15,4 km/h (3 Bft)
02.12.2012 17:00 -1,4 C 94 % 1014,4 hPa 0,0 l/m SW 0,00 h 0 W/m 11,4 km/h (2 Bft)
02.12.2012 18:00 -1,6 C 95 % 1014,7 hPa 0,0 l/m W-SW 0,00 h 0 W/m 12,1 km/h (2 Bft)
02.12.2012 19:00 -1,7 C 95 % 1015,1 hPa 0,0 l/m W 0,00 h 0 W/m 10,9 km/h (2 Bft)
02.12.2012 20:00 -1,8 C 94 % 1015,4 hPa 0,0 l/m W 0,00 h 0 W/m 11,1 km/h (2 Bft)
02.12.2012 21:00 -1,7 C 94 % 1015,9 hPa 0,0 l/m W 0,00 h 0 W/m 9,4 km/h (2 Bft)
02.12.2012 22:00 -1,6 C 94 % 1016,3 hPa 0,0 l/m W 0,00 h 0 W/m 12,5 km/h (3 Bft)
02.12.2012 23:00 -1,6 C 94 % 1016,9 hPa 0,0 l/m W-SW 0,00 h 0 W/m 14,1 km/h (3 Bft)
Min-Datum _ 02.12.12 30.11.12 29.11.12 - - - - 26.11.12
_ Min-Zeit 02:05 15:05 00:20 - - - - 00:00
Minimum _ -4,4 C 75 % 992,2 hPa - - - - 0,0 km/h (0 Bft)
Max-Datum _ 26.11.12 26.11.12 02.12.12 29.11.12 - 30.11.12 02.12.12 02.12.12
_ Max-Zeit 14:25 17:45 23:40 05:00 - 13:45 12:55 13:10
Maximum _ 9,8 C 100 % 1017,1 hPa 3,0 l/m - 0,08 h 446 W/m 30,6 km/h
W-SW (5 Bft)
Durchschnitt _ 2,0 C 95 % 1006,3 hPa #38,6 l/m NO #2:10 h 46 W/m 6,4 km/h (2 Bft)